| time (UTC) | temp C | wind direction | speed KPH | gust KPH | rain 1hr cm | rain 24hr cm | rain mn cm | humidity % | barometer mb |
| 20260508131617 | 10 | 97 | 1.6 | 3.2 | 0.00 | 0.00 | 0.00 | 80 | 1018.5 |
| 20260508131114 | 8 | 88 | 3.2 | 4.8 | 0.00 | 0.00 | 0.00 | 85 | 1018.5 |
| 20260508130611 | 6 | 86 | 3.2 | 3.2 | 0.00 | 0.00 | 0.00 | 97 | 1018.4 |
| 20260508130108 | 6 | 139 | 0.0 | 0.0 | 0.00 | 0.00 | 0.00 | 99 | 1018.5 |
| 20260508125607 | 6 | 113 | 0.0 | 3.2 | 0.00 | 0.00 | 0.00 | 99 | 1018.3 |
| 20260508125106 | 5 | 183 | 0.0 | 0.0 | 0.00 | 0.00 | 0.00 | 99 | 1018.6 |
| 20260508124604 | 5 | 128 | 0.0 | 0.0 | 0.00 | 0.00 | 0.00 | 99 | 1018.5 |
| 20260508124100 | 4 | 128 | 0.0 | 0.0 | 0.00 | 0.00 | 0.00 | 99 | 1018.5 |
| 20260508123559 | 3 | 128 | 0.0 | 0.0 | 0.00 | 0.00 | 0.00 | 99 | 1018.4 |
| 20260508123055 | 3 | 128 | 0.0 | 0.0 | 0.00 | 0.00 | 0.00 | 99 | 1018.3 |
| 20260508122552 | 2 | 128 | 0.0 | 0.0 | 0.00 | 0.00 | 0.00 | 99 | 1018.3 |
| 20260508122049 | 2 | 128 | 0.0 | 0.0 | 0.00 | 0.00 | 0.00 | 99 | 1018.4 |
| 20260508121548 | 2 | 128 | 0.0 | 0.0 | 0.00 | 0.00 | 0.00 | 99 | 1018.6 |
| 20260508121045 | 1 | 128 | 0.0 | 0.0 | 0.00 | 0.00 | 0.00 | 99 | 1018.4 |
| 20260508120542 | 1 | 128 | 0.0 | 0.0 | 0.00 | 0.00 | 0.00 | 99 | 1018.4 |
| 20260508120041 | 1 | 128 | 0.0 | 0.0 | 0.00 | 0.00 | 0.00 | 99 | 1018.5 |
| 20260508115537 | 1 | 128 | 0.0 | 0.0 | 0.00 | 0.00 | 0.00 | 99 | 1018.4 |
| 20260508115034 | 1 | 128 | 0.0 | 0.0 | 0.00 | 0.00 | 0.00 | 99 | 1018.4 |
| 20260508114531 | 1 | 128 | 0.0 | 0.0 | 0.00 | 0.00 | 0.00 | 99 | 1018.4 |
| 20260508114027 | 0 | 128 | 0.0 | 0.0 | 0.00 | 0.00 | 0.00 | 99 | 1018.3 |
| 20260508113525 | 0 | 128 | 0.0 | 0.0 | 0.00 | 0.00 | 0.00 | 99 | 1018.4 |
| 20260508113023 | 0 | 128 | 0.0 | 0.0 | 0.00 | 0.00 | 0.00 | 99 | 1018.3 |
| 20260508112519 | 0 | 128 | 0.0 | 0.0 | 0.00 | 0.00 | 0.00 | 99 | 1018.3 |
| 20260508112016 | 0 | 128 | 0.0 | 0.0 | 0.00 | 0.00 | 0.00 | 99 | 1018.1 |
| 20260508111513 | 0 | 128 | 0.0 | 0.0 | 0.00 | 0.00 | 0.00 | 99 | 1018.2 |
| 20260508111010 | 0 | 128 | 0.0 | 0.0 | 0.00 | 0.00 | 0.00 | 99 | 1018.0 |
| 20260508110508 | 0 | 128 | 0.0 | 0.0 | 0.00 | 0.00 | 0.00 | 99 | 1018.1 |
| 20260508110003 | 0 | 128 | 0.0 | 0.0 | 0.00 | 0.00 | 0.00 | 99 | 1017.9 |
| 20260508105458 | 0 | 128 | 0.0 | 0.0 | 0.00 | 0.00 | 0.00 | 99 | 1018.0 |
| 20260508104956 | 0 | 128 | 0.0 | 0.0 | 0.00 | 0.00 | 0.00 | 99 | 1017.9 |
| 20260508104453 | 0 | 128 | 0.0 | 0.0 | 0.00 | 0.00 | 0.00 | 99 | 1017.9 |
| 20260508103950 | 0 | 128 | 0.0 | 0.0 | 0.00 | 0.00 | 0.00 | 99 | 1017.9 |
| 20260508103447 | 0 | 128 | 0.0 | 0.0 | 0.00 | 0.00 | 0.00 | 99 | 1017.9 |
| 20260508102943 | 0 | 128 | 0.0 | 0.0 | 0.00 | 0.00 | 0.00 | 99 | 1017.9 |
| 20260508102442 | 0 | 128 | 0.0 | 0.0 | 0.00 | 0.00 | 0.00 | 99 | 1017.7 |
| 20260508101939 | 0 | 128 | 0.0 | 0.0 | 0.00 | 0.00 | 0.00 | 99 | 1017.8 |
| 20260508101436 | 0 | 128 | 0.0 | 0.0 | 0.00 | 0.00 | 0.00 | 99 | 1017.8 |
| 20260508100933 | 0 | 128 | 0.0 | 0.0 | 0.00 | 0.00 | 0.00 | 99 | 1017.6 |
| 20260508100432 | 0 | 128 | 0.0 | 0.0 | 0.00 | 0.00 | 0.00 | 99 | 1017.7 |
| 20260508095928 | 0 | 128 | 0.0 | 0.0 | 0.00 | 0.00 | 0.00 | 99 | 1017.7 |
| 20260508095426 | 0 | 128 | 0.0 | 0.0 | 0.00 | 0.00 | 0.00 | 99 | 1017.8 |
| 20260508094922 | 0 | 128 | 0.0 | 0.0 | 0.00 | 0.00 | 0.00 | 99 | 1017.6 |
| 20260508094419 | 0 | 128 | 0.0 | 0.0 | 0.00 | 0.00 | 0.00 | 99 | 1017.7 |
| 20260508093916 | 0 | 128 | 0.0 | 0.0 | 0.00 | 0.00 | 0.00 | 99 | 1017.7 |
| 20260508093414 | 0 | 128 | 0.0 | 0.0 | 0.00 | 0.00 | 0.00 | 99 | 1017.7 |
| 20260508092911 | 0 | 128 | 0.0 | 0.0 | 0.00 | 0.00 | 0.00 | 99 | 1017.7 |
| 20260508092409 | 0 | 128 | 0.0 | 0.0 | 0.00 | 0.00 | 0.00 | 99 | 1017.7 |
| 20260508091907 | 0 | 128 | 0.0 | 0.0 | 0.00 | 0.00 | 0.00 | 99 | 1017.5 |
| 20260508091403 | 0 | 128 | 0.0 | 0.0 | 0.00 | 0.00 | 0.00 | 99 | 1017.5 |
| 20260508090901 | 0 | 128 | 0.0 | 0.0 | 0.00 | 0.00 | 0.00 | 99 | 1017.7 |
| 20260508090359 | 0 | 128 | 0.0 | 0.0 | 0.00 | 0.00 | 0.00 | 99 | 1017.5 |
| 20260508085854 | 0 | 128 | 0.0 | 0.0 | 0.00 | 0.00 | 0.00 | 99 | 1017.7 |
| 20260508085351 | 0 | 128 | 0.0 | 0.0 | 0.00 | 0.00 | 0.00 | 99 | 1017.6 |
| 20260508084848 | 0 | 128 | 0.0 | 0.0 | 0.00 | 0.00 | 0.00 | 99 | 1017.4 |
| 20260508084345 | 0 | 128 | 0.0 | 0.0 | 0.00 | 0.00 | 0.00 | 99 | 1017.4 |
| 20260508083843 | 0 | 128 | 0.0 | 0.0 | 0.00 | 0.00 | 0.00 | 99 | 1017.2 |
| 20260508083340 | 0 | 128 | 0.0 | 0.0 | 0.00 | 0.00 | 0.00 | 99 | 1017.3 |
| 20260508082839 | 0 | 128 | 0.0 | 0.0 | 0.00 | 0.00 | 0.00 | 99 | 1017.3 |
| 20260508082337 | 0 | 128 | 0.0 | 0.0 | 0.00 | 0.00 | 0.00 | 99 | 1017.3 |
| 20260508081834 | 0 | 128 | 0.0 | 0.0 | 0.00 | 0.00 | 0.00 | 99 | 1017.4 |
| 20260508081331 | 0 | 128 | 0.0 | 0.0 | 0.00 | 0.00 | 0.00 | 99 | 1017.3 |
| 20260508080828 | 0 | 128 | 0.0 | 0.0 | 0.00 | 0.00 | 0.00 | 99 | 1017.3 |
| 20260508080326 | 0 | 128 | 0.0 | 0.0 | 0.00 | 0.00 | 0.00 | 99 | 1017.3 |
| 20260508075822 | 1 | 128 | 0.0 | 0.0 | 0.00 | 0.00 | 0.00 | 99 | 1017.3 |
| 20260508075319 | 0 | 128 | 0.0 | 0.0 | 0.00 | 0.00 | 0.00 | 99 | 1017.7 |
| 20260508074817 | 0 | 128 | 0.0 | 0.0 | 0.00 | 0.00 | 0.00 | 99 | 1017.3 |
| 20260508074314 | 1 | 128 | 0.0 | 0.0 | 0.00 | 0.00 | 0.00 | 99 | 1017.3 |
| 20260508073811 | 1 | 128 | 0.0 | 0.0 | 0.00 | 0.00 | 0.00 | 99 | 1017.3 |
| 20260508073309 | 1 | 128 | 0.0 | 0.0 | 0.00 | 0.00 | 0.00 | 99 | 1017.1 |
| 20260508072805 | 1 | 128 | 0.0 | 0.0 | 0.00 | 0.00 | 0.00 | 99 | 1017.1 |
| 20260508072306 | 1 | 128 | 0.0 | 0.0 | 0.00 | 0.00 | 0.00 | 99 | 1017.1 |
| 20260508071759 | 1 | 128 | 0.0 | 0.0 | 0.00 | 0.00 | 0.00 | 99 | 1017.1 |
| 20260508071258 | 1 | 128 | 0.0 | 0.0 | 0.00 | 0.00 | 0.00 | 99 | 1017.1 |
| 20260508070755 | 1 | 128 | 0.0 | 0.0 | 0.00 | 0.00 | 0.00 | 99 | 1017.0 |
| 20260508070253 | 1 | 128 | 0.0 | 0.0 | 0.00 | 0.00 | 0.00 | 99 | 1017.0 |
| 20260508065750 | 1 | 128 | 0.0 | 0.0 | 0.00 | 0.00 | 0.00 | 99 | 1017.0 |
| 20260508065248 | 1 | 128 | 0.0 | 0.0 | 0.00 | 0.00 | 0.00 | 99 | 1017.1 |
| 20260508064746 | 1 | 128 | 0.0 | 0.0 | 0.00 | 0.00 | 0.00 | 99 | 1017.2 |
| 20260508064244 | 1 | 128 | 0.0 | 0.0 | 0.00 | 0.00 | 0.00 | 99 | 1017.4 |
| 20260508063740 | 1 | 128 | 0.0 | 0.0 | 0.00 | 0.00 | 0.00 | 99 | 1017.2 |
| 20260508063239 | 1 | 128 | 0.0 | 0.0 | 0.00 | 0.00 | 0.00 | 99 | 1017.5 |
| 20260508062735 | 1 | 128 | 0.0 | 0.0 | 0.00 | 0.00 | 0.00 | 99 | 1017.4 |
| 20260508062233 | 1 | 128 | 0.0 | 0.0 | 0.00 | 0.00 | 0.00 | 99 | 1017.3 |
| 20260508061730 | 1 | 128 | 0.0 | 0.0 | 0.00 | 0.00 | 0.00 | 99 | 1017.4 |
| 20260508061227 | 1 | 128 | 0.0 | 0.0 | 0.00 | 0.00 | 0.00 | 99 | 1017.5 |
| 20260508060723 | 1 | 128 | 0.0 | 0.0 | 0.00 | 0.00 | 0.00 | 99 | 1017.5 |
| 20260508060221 | 1 | 128 | 0.0 | 0.0 | 0.00 | 0.00 | 0.00 | 99 | 1017.4 |
| 20260508055716 | 1 | 128 | 0.0 | 0.0 | 0.00 | 0.00 | 0.00 | 99 | 1017.5 |
| 20260508055213 | 1 | 128 | 0.0 | 0.0 | 0.00 | 0.00 | 0.00 | 99 | 1017.5 |
| 20260508054710 | 1 | 128 | 0.0 | 0.0 | 0.00 | 0.00 | 0.00 | 99 | 1017.3 |
| 20260508054208 | 2 | 128 | 0.0 | 0.0 | 0.00 | 0.00 | 0.00 | 99 | 1017.4 |
| 20260508053705 | 2 | 128 | 0.0 | 0.0 | 0.00 | 0.00 | 0.00 | 99 | 1017.4 |
| 20260508053202 | 2 | 128 | 0.0 | 0.0 | 0.00 | 0.00 | 0.00 | 99 | 1017.3 |
| 20260508052659 | 2 | 128 | 0.0 | 0.0 | 0.00 | 0.00 | 0.00 | 99 | 1017.2 |
| 20260508052156 | 2 | 128 | 0.0 | 0.0 | 0.00 | 0.00 | 0.00 | 99 | 1017.3 |
| 20260508051652 | 2 | 128 | 0.0 | 0.0 | 0.00 | 0.00 | 0.00 | 99 | 1017.2 |
| 20260508051148 | 2 | 128 | 0.0 | 0.0 | 0.00 | 0.00 | 0.00 | 99 | 1017.3 |
| 20260508050644 | 2 | 128 | 0.0 | 0.0 | 0.00 | 0.00 | 0.00 | 99 | 1017.2 |
| 20260508050142 | 2 | 128 | 0.0 | 0.0 | 0.00 | 0.00 | 0.00 | 99 | 1017.2 |
| 20260508045637 | 2 | 128 | 0.0 | 0.0 | 0.00 | 0.00 | 0.00 | 99 | 1017.1 |
| 20260508045136 | 2 | 128 | 0.0 | 0.0 | 0.00 | 0.00 | 0.00 | 99 | 1017.4 |
| 20260508044632 | 2 | 128 | 0.0 | 0.0 | 0.00 | 0.00 | 0.00 | 99 | 1017.3 |
| 20260508044129 | 2 | 128 | 0.0 | 0.0 | 0.00 | 0.00 | 0.00 | 99 | 1017.3 |
| 20260508043625 | 2 | 128 | 0.0 | 0.0 | 0.00 | 0.00 | 0.00 | 99 | 1017.4 |
| 20260508043123 | 2 | 128 | 0.0 | 0.0 | 0.00 | 0.00 | 0.00 | 99 | 1017.2 |
| 20260508042619 | 2 | 128 | 0.0 | 0.0 | 0.00 | 0.00 | 0.00 | 99 | 1017.3 |
| 20260508042117 | 2 | 128 | 0.0 | 0.0 | 0.00 | 0.00 | 0.00 | 99 | 1017.3 |
| 20260508041613 | 2 | 128 | 0.0 | 0.0 | 0.00 | 0.00 | 0.00 | 99 | 1017.2 |
| 20260508041110 | 2 | 128 | 0.0 | 0.0 | 0.00 | 0.00 | 0.00 | 98 | 1017.3 |
| 20260508040606 | 2 | 128 | 0.0 | 0.0 | 0.00 | 0.00 | 0.00 | 98 | 1017.1 |
| 20260508040104 | 2 | 128 | 0.0 | 0.0 | 0.00 | 0.00 | 0.00 | 98 | 1017.4 |
| 20260508035601 | 3 | 128 | 0.0 | 0.0 | 0.00 | 0.00 | 0.00 | 98 | 1017.3 |
| 20260508035058 | 3 | 128 | 0.0 | 0.0 | 0.00 | 0.00 | 0.00 | 98 | 1017.2 |
| 20260508034554 | 3 | 128 | 0.0 | 0.0 | 0.00 | 0.00 | 0.00 | 98 | 1017.4 |
| 20260508034052 | 3 | 128 | 0.0 | 0.0 | 0.00 | 0.00 | 0.00 | 98 | 1017.4 |
| 20260508033549 | 3 | 128 | 0.0 | 0.0 | 0.00 | 0.00 | 0.00 | 97 | 1017.3 |
| 20260508033048 | 3 | 128 | 0.0 | 0.0 | 0.00 | 0.00 | 0.00 | 97 | 1017.2 |
| 20260508032543 | 3 | 128 | 0.0 | 0.0 | 0.00 | 0.00 | 0.00 | 97 | 1017.2 |
| 20260508032042 | 3 | 128 | 0.0 | 0.0 | 0.00 | 0.00 | 0.00 | 97 | 1017.2 |
| 20260508031538 | 3 | 128 | 0.0 | 0.0 | 0.00 | 0.00 | 0.00 | 97 | 1017.1 |
| 20260508031034 | 4 | 128 | 0.0 | 0.0 | 0.00 | 0.00 | 0.00 | 97 | 1017.2 |
| 20260508030531 | 3 | 128 | 0.0 | 0.0 | 0.00 | 0.00 | 0.00 | 97 | 1017.2 |
| 20260508030029 | 4 | 128 | 0.0 | 0.0 | 0.00 | 0.00 | 0.00 | 96 | 1017.1 |
| 20260508025524 | 4 | 128 | 0.0 | 0.0 | 0.00 | 0.00 | 0.00 | 96 | 1016.9 |
| 20260508025022 | 4 | 128 | 0.0 | 0.0 | 0.00 | 0.00 | 0.00 | 96 | 1016.8 |
| 20260508024518 | 4 | 128 | 0.0 | 0.0 | 0.00 | 0.00 | 0.00 | 96 | 1016.8 |
| 20260508024015 | 4 | 128 | 0.0 | 0.0 | 0.00 | 0.00 | 0.00 | 96 | 1016.7 |
| 20260508023511 | 4 | 128 | 0.0 | 0.0 | 0.00 | 0.00 | 0.00 | 95 | 1016.8 |
| 20260508023009 | 4 | 128 | 0.0 | 0.0 | 0.00 | 0.00 | 0.00 | 95 | 1016.6 |
| 20260508022505 | 5 | 128 | 0.0 | 0.0 | 0.00 | 0.00 | 0.00 | 95 | 1016.5 |
| 20260508022001 | 5 | 128 | 0.0 | 0.0 | 0.00 | 0.00 | 0.00 | 95 | 1016.3 |
| 20260508021458 | 5 | 128 | 0.0 | 0.0 | 0.00 | 0.00 | 0.00 | 94 | 1016.5 |
| 20260508020954 | 5 | 128 | 0.0 | 0.0 | 0.00 | 0.00 | 0.00 | 94 | 1016.5 |
| 20260508020452 | 5 | 128 | 0.0 | 0.0 | 0.00 | 0.00 | 0.00 | 93 | 1016.3 |
| 20260508015948 | 5 | 128 | 0.0 | 0.0 | 0.00 | 0.00 | 0.00 | 93 | 1016.3 |
| 20260508015446 | 5 | 128 | 0.0 | 0.0 | 0.00 | 0.00 | 0.00 | 92 | 1016.0 |
| 20260508014943 | 6 | 128 | 0.0 | 0.0 | 0.00 | 0.00 | 0.00 | 91 | 1016.0 |
| 20260508014440 | 6 | 128 | 0.0 | 0.0 | 0.00 | 0.00 | 0.00 | 91 | 1016.0 |
| 20260508013935 | 6 | 128 | 0.0 | 0.0 | 0.00 | 0.00 | 0.00 | 91 | 1015.7 |
| 20260508013431 | 6 | 128 | 0.0 | 0.0 | 0.00 | 0.00 | 0.00 | 91 | 1015.8 |
| 20260508012929 | 6 | 128 | 0.0 | 0.0 | 0.00 | 0.00 | 0.00 | 90 | 1016.0 |
| 20260508012426 | 6 | 128 | 0.0 | 0.0 | 0.00 | 0.00 | 0.00 | 90 | 1015.6 |
| 20260508011923 | 7 | 128 | 0.0 | 0.0 | 0.00 | 0.00 | 0.00 | 89 | 1015.5 |
| 20260508011421 | 7 | 128 | 0.0 | 0.0 | 0.00 | 0.00 | 0.00 | 89 | 1015.5 |
| 20260508010918 | 7 | 128 | 0.0 | 0.0 | 0.00 | 0.00 | 0.00 | 88 | 1015.3 |
| 20260508010415 | 7 | 128 | 0.0 | 0.0 | 0.00 | 0.00 | 0.00 | 87 | 1015.3 |
| 20260508005912 | 7 | 128 | 0.0 | 0.0 | 0.00 | 0.00 | 0.00 | 86 | 1015.5 |
| 20260508005409 | 8 | 127 | 0.0 | 0.0 | 0.00 | 0.00 | 0.00 | 85 | 1015.5 |
| 20260508004906 | 8 | 127 | 0.0 | 0.0 | 0.00 | 0.00 | 0.00 | 84 | 1015.4 |
| 20260508004402 | 8 | 128 | 0.0 | 1.6 | 0.00 | 0.00 | 0.00 | 83 | 1015.1 |
| 20260508003859 | 8 | 127 | 0.0 | 0.0 | 0.00 | 0.00 | 0.00 | 84 | 1015.1 |
| 20260508003355 | 8 | 126 | 0.0 | 0.0 | 0.00 | 0.00 | 0.00 | 82 | 1015.0 |
| 20260508002853 | 9 | 126 | 0.0 | 0.0 | 0.00 | 0.00 | 0.00 | 81 | 1015.0 |
| 20260508002349 | 9 | 126 | 0.0 | 0.0 | 0.00 | 0.00 | 0.00 | 81 | 1015.0 |
| 20260508001845 | 10 | 100 | 0.0 | 0.0 | 0.00 | 0.00 | 0.00 | 81 | 1015.1 |
| 20260508001341 | 10 | 88 | 0.0 | 0.0 | 0.00 | 0.00 | 0.00 | 82 | 1014.7 |
| 20260508000838 | 10 | 58 | 0.0 | 0.0 | 0.00 | 0.00 | 0.00 | 81 | 1014.7 |
| 20260508000335 | 10 | 34 | 0.0 | 0.0 | 0.00 | 0.00 | 0.00 | 79 | 1014.6 |
| 20260507235831 | 10 | 33 | 0.0 | 0.0 | 0.00 | 0.00 | 0.00 | 79 | 1014.7 |
| 20260507235329 | 11 | 33 | 0.0 | 0.0 | 0.00 | 0.00 | 0.00 | 77 | 1014.4 |
| 20260507234826 | 11 | 33 | 0.0 | 1.6 | 0.00 | 0.00 | 0.00 | 75 | 1014.3 |
| 20260507234322 | 11 | 33 | 0.0 | 1.6 | 0.00 | 0.00 | 0.00 | 72 | 1014.3 |
| 20260507233818 | 11 | 219 | 0.0 | 3.2 | 0.00 | 0.00 | 0.00 | 76 | 1014.2 |
| 20260507233316 | 12 | 47 | 0.0 | 0.0 | 0.00 | 0.00 | 0.00 | 73 | 1014.0 |
| 20260507232814 | 12 | 47 | 0.0 | 0.0 | 0.00 | 0.00 | 0.00 | 71 | 1014.2 |
| 20260507232310 | 12 | 44 | 1.6 | 1.6 | 0.00 | 0.00 | 0.00 | 72 | 1014.2 |
| 20260507231808 | 13 | 42 | 0.0 | 0.0 | 0.00 | 0.00 | 0.00 | 70 | 1014.1 |
| 20260507231304 | 13 | 269 | 0.0 | 3.2 | 0.00 | 0.00 | 0.00 | 59 | 1014.2 |
| 20260507230800 | 15 | 229 | 0.0 | 1.6 | 0.00 | 0.00 | 0.00 | 57 | 1014.2 |
| 20260507230258 | 13 | 86 | 0.0 | 3.2 | 0.00 | 0.00 | 0.00 | 60 | 1014.2 |
| 20260507225758 | 13 | 78 | 0.0 | 1.6 | 0.00 | 0.00 | 0.00 | 66 | 1014.0 |
| 20260507225254 | 14 | 214 | 1.6 | 1.6 | 0.00 | 0.00 | 0.00 | 55 | 1014.2 |
| 20260507224750 | 15 | 235 | 3.2 | 3.2 | 0.00 | 0.00 | 0.00 | 48 | 1014.1 |
| 20260507224247 | 15 | 193 | 4.8 | 4.8 | 0.00 | 0.00 | 0.00 | 42 | 1014.2 |
| 20260507223743 | 15 | 307 | 3.2 | 3.2 | 0.00 | 0.00 | 0.00 | 47 | 1014.2 |
| 20260507223239 | 16 | 225 | 1.6 | 3.2 | 0.00 | 0.00 | 0.00 | 40 | 1013.8 |
| 20260507222736 | 15 | 159 | 3.2 | 4.8 | 0.00 | 0.00 | 0.00 | 40 | 1014.0 |
| 20260507222233 | 16 | 263 | 1.6 | 3.2 | 0.00 | 0.00 | 0.00 | 52 | 1013.7 |
| 20260507221730 | 16 | 306 | 0.0 | 6.4 | 0.00 | 0.00 | 0.00 | 41 | 1013.8 |
| 20260507221226 | 16 | 41 | 0.0 | 0.0 | 0.00 | 0.00 | 0.00 | 48 | 1013.9 |
| 20260507220723 | 16 | 44 | 1.6 | 4.8 | 0.00 | 0.00 | 0.00 | 45 | 1013.7 |
| 20260507220221 | 16 | 256 | 1.6 | 4.8 | 0.00 | 0.00 | 0.00 | 45 | 1013.9 |
| 20260507215717 | 16 | 262 | 1.6 | 1.6 | 0.00 | 0.00 | 0.00 | 46 | 1013.7 |
| 20260507215215 | 17 | 141 | 3.2 | 11.3 | 0.00 | 0.00 | 0.00 | 43 | 1013.5 |
| 20260507214712 | 17 | 39 | 0.0 | 9.7 | 0.00 | 0.00 | 0.00 | 39 | 1013.6 |
| 20260507214209 | 17 | 136 | 3.2 | 6.4 | 0.00 | 0.00 | 0.00 | 44 | 1013.5 |
| 20260507213704 | 18 | 329 | 4.8 | 17.7 | 0.00 | 0.00 | 0.00 | 38 | 1013.6 |
| 20260507213202 | 18 | 265 | 0.0 | 1.6 | 0.00 | 0.00 | 0.00 | 44 | 1013.5 |
| 20260507212657 | 17 | 1 | 0.0 | 9.7 | 0.00 | 0.00 | 0.00 | 38 | 1013.5 |
| 20260507212154 | 17 | 225 | 3.2 | 4.8 | 0.00 | 0.00 | 0.00 | 39 | 1013.3 |
| 20260507211651 | 16 | 206 | 1.6 | 6.4 | 0.00 | 0.00 | 0.00 | 41 | 1013.2 |
| 20260507211147 | 17 | 208 | 3.2 | 6.4 | 0.00 | 0.00 | 0.00 | 41 | 1013.4 |
| 20260507210644 | 17 | 123 | 0.0 | 11.3 | 0.00 | 0.00 | 0.00 | 39 | 1013.3 |
| 20260507210141 | 17 | 39 | 9.7 | 12.9 | 0.00 | 0.00 | 0.00 | 40 | 1013.2 |
| 20260507205637 | 17 | 57 | 4.8 | 11.3 | 0.00 | 0.00 | 0.00 | 41 | 1013.4 |
| 20260507205134 | 16 | 91 | 3.2 | 11.3 | 0.00 | 0.00 | 0.00 | 42 | 1013.1 |
| 20260507204630 | 16 | 81 | 1.6 | 4.8 | 0.00 | 0.00 | 0.00 | 46 | 1013.2 |
| 20260507204128 | 16 | 86 | 3.2 | 9.7 | 0.00 | 0.00 | 0.00 | 46 | 1013.1 |
| 20260507203626 | 17 | 245 | 0.0 | 3.2 | 0.00 | 0.00 | 0.00 | 46 | 1013.4 |
| 20260507203123 | 17 | 109 | 1.6 | 1.6 | 0.00 | 0.00 | 0.00 | 43 | 1013.2 |
| 20260507202619 | 16 | 248 | 0.0 | 3.2 | 0.00 | 0.00 | 0.00 | 48 | 1013.3 |
| 20260507202115 | 16 | 68 | 0.0 | 1.6 | 0.00 | 0.00 | 0.00 | 46 | 1013.2 |
| 20260507201610 | 17 | 50 | 1.6 | 6.4 | 0.00 | 0.00 | 0.00 | 48 | 1013.2 |
| 20260507201108 | 18 | 27 | 11.3 | 14.5 | 0.00 | 0.00 | 0.00 | 41 | 1013.3 |
| 20260507200603 | 17 | 205 | 3.2 | 4.8 | 0.00 | 0.00 | 0.00 | 46 | 1013.4 |
| 20260507200059 | 17 | 230 | 1.6 | 3.2 | 0.00 | 0.00 | 0.00 | 47 | 1013.3 |
| 20260507195557 | 16 | 10 | 0.0 | 3.2 | 0.00 | 0.00 | 0.00 | 50 | 1013.5 |
| 20260507195054 | 17 | 58 | 0.0 | 4.8 | 0.00 | 0.00 | 0.00 | 46 | 1013.3 |
| 20260507194550 | 16 | 48 | 3.2 | 17.7 | 0.00 | 0.00 | 0.00 | 44 | 1013.4 |
| 20260507194046 | 17 | 37 | 8.0 | 11.3 | 0.00 | 0.00 | 0.00 | 43 | 1013.6 |
| 20260507193543 | 16 | 77 | 11.3 | 17.7 | 0.00 | 0.00 | 0.00 | 47 | 1013.4 |
| 20260507193040 | 16 | 276 | 3.2 | 4.8 | 0.00 | 0.00 | 0.00 | 48 | 1013.6 |
| 20260507192536 | 16 | 153 | 1.6 | 4.8 | 0.00 | 0.00 | 0.00 | 46 | 1013.6 |
| 20260507192033 | 17 | 45 | 0.0 | 1.6 | 0.00 | 0.00 | 0.00 | 42 | 1013.6 |
| 20260507191528 | 17 | 353 | 3.2 | 6.4 | 0.00 | 0.00 | 0.00 | 47 | 1013.7 |
| 20260507191026 | 16 | 224 | 0.0 | 3.2 | 0.00 | 0.00 | 0.00 | 49 | 1013.9 |
| 20260507190523 | 17 | 265 | 1.6 | 3.2 | 0.00 | 0.00 | 0.00 | 46 | 1013.8 |
| 20260507190022 | 17 | 162 | 0.0 | 9.7 | 0.00 | 0.00 | 0.00 | 48 | 1013.5 |
| 20260507185520 | 18 | 50 | 11.3 | 12.9 | 0.00 | 0.00 | 0.00 | 43 | 1013.9 |
| 20260507185016 | 17 | 205 | 1.6 | 3.2 | 0.00 | 0.00 | 0.00 | 51 | 1013.9 |
| 20260507184514 | 17 | 295 | 1.6 | 3.2 | 0.00 | 0.00 | 0.00 | 48 | 1013.9 |
| 20260507184012 | 17 | 184 | 6.4 | 6.4 | 0.00 | 0.00 | 0.00 | 49 | 1014.1 |
| 20260507183507 | 16 | 206 | 4.8 | 4.8 | 0.00 | 0.00 | 0.00 | 50 | 1014.2 |
| 20260507183005 | 16 | 94 | 3.2 | 3.2 | 0.00 | 0.00 | 0.00 | 53 | 1014.3 |
| 20260507182501 | 15 | 64 | 1.6 | 6.4 | 0.00 | 0.00 | 0.00 | 52 | 1014.3 |
| 20260507181957 | 16 | 47 | 11.3 | 12.9 | 0.00 | 0.00 | 0.00 | 50 | 1014.1 |
| 20260507181454 | 16 | 72 | 14.5 | 16.1 | 0.00 | 0.00 | 0.00 | 48 | 1014.0 |
| 20260507180950 | 16 | 11 | 0.0 | 3.2 | 0.00 | 0.00 | 0.00 | 54 | 1014.2 |
| 20260507180447 | 15 | 75 | 0.0 | 1.6 | 0.00 | 0.00 | 0.00 | 51 | 1014.3 |
| 20260507175943 | 16 | 75 | 6.4 | 9.7 | 0.00 | 0.00 | 0.00 | 52 | 1014.1 |
| 20260507175440 | 17 | 101 | 6.4 | 9.7 | 0.00 | 0.00 | 0.00 | 50 | 1014.1 |
| 20260507174938 | 17 | 266 | 3.2 | 6.4 | 0.00 | 0.00 | 0.00 | 49 | 1014.3 |
| 20260507174434 | 16 | 58 | 4.8 | 4.8 | 0.00 | 0.00 | 0.00 | 51 | 1014.4 |
| 20260507173932 | 16 | 276 | 6.4 | 16.1 | 0.00 | 0.00 | 0.00 | 47 | 1014.3 |
| 20260507173429 | 16 | 284 | 3.2 | 11.3 | 0.00 | 0.00 | 0.00 | 48 | 1014.4 |
| 20260507172926 | 16 | 251 | 0.0 | 4.8 | 0.00 | 0.00 | 0.00 | 49 | 1014.3 |
| 20260507172422 | 15 | 317 | 1.6 | 4.8 | 0.00 | 0.00 | 0.00 | 55 | 1014.6 |
| 20260507171918 | 16 | 210 | 0.0 | 3.2 | 0.00 | 0.00 | 0.00 | 53 | 1014.6 |
| 20260507171415 | 17 | 140 | 3.2 | 4.8 | 0.00 | 0.00 | 0.00 | 52 | 1014.6 |
| 20260507170912 | 16 | 15 | 0.0 | 4.8 | 0.00 | 0.00 | 0.00 | 51 | 1014.6 |
| 20260507170408 | 16 | 295 | 3.2 | 3.2 | 0.00 | 0.00 | 0.00 | 56 | 1014.6 |
| 20260507165905 | 15 | 194 | 1.6 | 3.2 | 0.00 | 0.00 | 0.00 | 60 | 1014.6 |
| 20260507165401 | 15 | 90 | 1.6 | 1.6 | 0.00 | 0.00 | 0.00 | 61 | 1014.8 |
| 20260507164856 | 14 | 68 | 1.6 | 6.4 | 0.00 | 0.00 | 0.00 | 60 | 1014.9 |
| 20260507164354 | 14 | 40 | 3.2 | 3.2 | 0.00 | 0.00 | 0.00 | 61 | 1014.8 |
| 20260507163851 | 15 | 356 | 1.6 | 4.8 | 0.00 | 0.00 | 0.00 | 62 | 1014.7 |
| 20260507163348 | 16 | 316 | 0.0 | 9.7 | 0.00 | 0.00 | 0.00 | 58 | 1014.8 |
| 20260507162845 | 15 | 238 | 1.6 | 11.3 | 0.00 | 0.00 | 0.00 | 57 | 1015.1 |
| 20260507162340 | 14 | 87 | 1.6 | 4.8 | 0.00 | 0.00 | 0.00 | 61 | 1015.0 |
| 20260507161838 | 14 | 99 | 0.0 | 3.2 | 0.00 | 0.00 | 0.00 | 59 | 1015.1 |
| 20260507161334 | 15 | 295 | 1.6 | 1.6 | 0.00 | 0.00 | 0.00 | 62 | 1015.4 |
| 20260507160831 | 15 | 233 | 4.8 | 4.8 | 0.00 | 0.00 | 0.00 | 63 | 1015.0 |
| 20260507160326 | 15 | 266 | 1.6 | 4.8 | 0.00 | 0.00 | 0.00 | 59 | 1015.0 |
| 20260507155823 | 14 | 339 | 1.6 | 3.2 | 0.00 | 0.00 | 0.00 | 66 | 1015.3 |
| 20260507155319 | 13 | 21 | 6.4 | 6.4 | 0.00 | 0.00 | 0.00 | 62 | 1015.5 |
| 20260507154816 | 14 | 124 | 0.0 | 1.6 | 0.00 | 0.00 | 0.00 | 59 | 1015.6 |
| 20260507154313 | 15 | 98 | 1.6 | 3.2 | 0.00 | 0.00 | 0.00 | 60 | 1015.4 |
| 20260507153810 | 13 | 213 | 1.6 | 3.2 | 0.00 | 0.00 | 0.00 | 63 | 1015.4 |
| 20260507153306 | 13 | 230 | 3.2 | 4.8 | 0.00 | 0.00 | 0.00 | 63 | 1015.1 |
| 20260507152803 | 14 | 221 | 3.2 | 4.8 | 0.00 | 0.00 | 0.00 | 65 | 1015.1 |
| 20260507152259 | 14 | 238 | 6.4 | 6.4 | 0.00 | 0.00 | 0.00 | 66 | 1015.1 |
| 20260507151755 | 14 | 227 | 1.6 | 6.4 | 0.00 | 0.00 | 0.00 | 61 | 1015.4 |
| 20260507151251 | 13 | 324 | 0.0 | 1.6 | 0.00 | 0.00 | 0.00 | 65 | 1015.3 |
| 20260507150748 | 13 | 79 | 1.6 | 1.6 | 0.00 | 0.00 | 0.00 | 62 | 1015.3 |
| 20260507150245 | 14 | 221 | 3.2 | 9.7 | 0.00 | 0.00 | 0.00 | 68 | 1015.4 |
| 20260507145741 | 13 | 106 | 0.0 | 9.7 | 0.00 | 0.00 | 0.00 | 61 | 1015.3 |
| 20260507145238 | 14 | 307 | 3.2 | 4.8 | 0.00 | 0.00 | 0.00 | 60 | 1015.5 |
| 20260507144735 | 13 | 217 | 1.6 | 1.6 | 0.00 | 0.00 | 0.00 | 66 | 1015.4 |
| 20260507144233 | 13 | 279 | 3.2 | 6.4 | 0.00 | 0.00 | 0.00 | 66 | 1015.8 |
| 20260507143729 | 13 | 318 | 4.8 | 6.4 | 0.00 | 0.00 | 0.00 | 65 | 1015.5 |
| 20260507143226 | 13 | 353 | 0.0 | 0.0 | 0.00 | 0.00 | 0.00 | 65 | 1015.7 |
| 20260507142722 | 12 | 291 | 4.8 | 4.8 | 0.00 | 0.00 | 0.00 | 66 | 1015.5 |
| 20260507142219 | 13 | 35 | 1.6 | 4.8 | 0.00 | 0.00 | 0.00 | 72 | 1015.6 |
| 20260507141715 | 13 | 99 | 0.0 | 1.6 | 0.00 | 0.00 | 0.00 | 72 | 1015.6 |
| 20260507141213 | 13 | 316 | 0.0 | 0.0 | 0.00 | 0.00 | 0.00 | 70 | 1015.8 |
| 20260507140708 | 12 | 61 | 0.0 | 0.0 | 0.00 | 0.00 | 0.00 | 76 | 1015.7 |
| 20260507140206 | 12 | 16 | 0.0 | 3.2 | 0.00 | 0.00 | 0.00 | 76 | 1015.6 |
| 20260507135703 | 12 | 18 | 0.0 | 1.6 | 0.00 | 0.00 | 0.00 | 77 | 1015.8 |
| 20260507135200 | 12 | 17 | 0.0 | 3.2 | 0.00 | 0.00 | 0.00 | 77 | 1015.8 |
| 20260507134657 | 12 | 12 | 1.6 | 3.2 | 0.00 | 0.00 | 0.00 | 80 | 1015.9 |
| 20260507134153 | 12 | 1 | 0.0 | 1.6 | 0.00 | 0.00 | 0.00 | 81 | 1016.1 |
| 20260507133649 | 11 | 258 | 1.6 | 1.6 | 0.00 | 0.00 | 0.00 | 86 | 1016.1 |
| 20260507133146 | 11 | 28 | 1.6 | 1.6 | 0.00 | 0.00 | 0.00 | 82 | 1016.1 |
| 20260507132643 | 11 | 24 | 0.0 | 1.6 | 0.00 | 0.00 | 0.00 | 87 | 1016.1 |
| 20260507132139 | 11 | 24 | 0.0 | 1.6 | 0.00 | 0.00 | 0.00 | 89 | 1016.0 |